Zurück zum Katalog

HST

AktivWissenschaftVLEO
NORAD 20580·PAYLOAD·🇺🇸 United States

Gestartet Apr 24, 1990 von Cape Canaveral Space Force Station

Loading…

Nächste Überflüge (nächste 24 Stunden)

TLE

AktuellSource: Space-Track

Epoche: Sep 14, 2026, 04:10 UTC

1 20580U 90037B   26257.17378261  .00005382  00000-0  16369-3 0  9997
2 20580  28.4732 191.9585 0001881  59.3129 300.7652 15.31641591802221

Verfolge HST in Echtzeit mit AllMySat

Download on the App Store